| time (UTC) | temp C | wind direction | speed KPH | gust KPH | rain 1hr cm | rain 24hr cm | rain mn cm | humidity % | barometer mb |
| 20260902163004 | 26 | 78 | 0.0 | 1.6 | 0.00 | 0.00 | 0.00 | 63 | 1019.5 |
| 20260902161503 | 26 | 80 | 1.6 | 6.4 | 0.00 | 0.00 | 0.00 | 57 | 1019.7 |
| 20260902160108 | 26 | 37 | 0.0 | 8.0 | 0.00 | 0.00 | 0.00 | 65 | 1019.7 |
| 20260902154612 | 25 | 67 | 6.4 | 11.3 | 0.00 | 0.00 | 0.00 | 60 | 1019.8 |
| 20260902153056 | 25 | 82 | 0.0 | 9.7 | 0.00 | 0.00 | 0.00 | 64 | 1019.8 |
| 20260902151554 | 25 | 18 | 1.6 | 8.0 | 0.00 | 0.00 | 0.00 | 70 | 1019.8 |
| 20260902150045 | 25 | 34 | 0.0 | 8.0 | 0.00 | 0.00 | 0.00 | 68 | 1019.8 |
| 20260902144547 | 25 | 98 | 3.2 | 11.3 | 0.00 | 0.00 | 0.00 | 71 | 1019.7 |
| 20260902143036 | 24 | 273 | 1.6 | 8.0 | 0.00 | 0.00 | 0.00 | 69 | 1019.4 |
| 20260902141531 | 23 | 68 | 6.4 | 11.3 | 0.00 | 0.00 | 0.00 | 69 | 1019.4 |
| 20260902140035 | 23 | 65 | 6.4 | 9.7 | 0.00 | 0.00 | 0.00 | 71 | 1019.3 |
| 20260902134523 | 23 | 59 | 4.8 | 9.7 | 0.00 | 0.00 | 0.00 | 74 | 1019.3 |
| 20260902133019 | 23 | 56 | 0.0 | 6.4 | 0.00 | 0.00 | 0.00 | 78 | 1019.4 |
| 20260902131513 | 23 | 66 | 1.6 | 8.0 | 0.00 | 0.00 | 0.00 | 78 | 1019.4 |
| 20260902130009 | 22 | 57 | 3.2 | 11.3 | 0.00 | 0.00 | 0.00 | 76 | 1019.3 |
| 20260902124514 | 22 | 65 | 3.2 | 8.0 | 0.00 | 0.00 | 0.00 | 77 | 1019.4 |
| 20260902123002 | 22 | 58 | 3.2 | 4.8 | 0.00 | 0.00 | 0.00 | 80 | 1019.3 |
| 20260902121608 | 21 | 74 | 1.6 | 6.4 | 0.00 | 0.00 | 0.00 | 80 | 1019.2 |
| 20260902120058 | 21 | 57 | 3.2 | 4.8 | 0.00 | 0.00 | 0.00 | 82 | 1019.2 |
| 20260902114556 | 21 | 67 | 3.2 | 8.0 | 0.00 | 0.00 | 0.00 | 81 | 1019.2 |
| 20260902113049 | 20 | 42 | 0.0 | 3.2 | 0.00 | 0.00 | 0.00 | 84 | 1018.8 |
| 20260902111545 | 20 | 42 | 0.0 | 3.2 | 0.00 | 0.00 | 0.00 | 84 | 1018.8 |
| 20260902110044 | 20 | 42 | 1.6 | 6.4 | 0.00 | 0.00 | 0.00 | 84 | 1018.7 |
| 20260902104547 | 20 | 42 | 1.6 | 6.4 | 0.00 | 0.00 | 0.00 | 85 | 1018.7 |
| 20260902103046 | 20 | 42 | 1.6 | 6.4 | 0.00 | 0.00 | 0.00 | 85 | 1018.7 |
| 20260902101545 | 20 | 42 | 1.6 | 8.0 | 0.00 | 0.00 | 0.00 | 85 | 1018.7 |
| 20260902100041 | 20 | 42 | 1.6 | 4.8 | 0.00 | 0.00 | 0.00 | 86 | 1018.7 |
| 20260902094540 | 20 | 61 | 1.6 | 4.8 | 0.00 | 0.00 | 0.00 | 86 | 1018.5 |
| 20260902093048 | 20 | 57 | 0.0 | 6.4 | 0.00 | 0.00 | 0.00 | 86 | 1018.5 |
| 20260902091547 | 20 | 52 | 0.0 | 6.4 | 0.00 | 0.00 | 0.00 | 86 | 1018.5 |
| 20260902090038 | 20 | 50 | 1.6 | 6.4 | 0.00 | 0.00 | 0.00 | 85 | 1018.6 |
| 20260902084548 | 20 | 46 | 1.6 | 8.0 | 0.00 | 0.00 | 0.00 | 83 | 1018.5 |
| 20260902083042 | 21 | 16 | 1.6 | 8.0 | 0.00 | 0.00 | 0.00 | 82 | 1018.5 |
| 20260902081535 | 21 | 22 | 0.0 | 4.8 | 0.00 | 0.00 | 0.00 | 82 | 1018.5 |
| 20260902080033 | 21 | 62 | 0.0 | 8.0 | 0.00 | 0.00 | 0.00 | 82 | 1018.3 |
| 20260902074533 | 21 | 67 | 3.2 | 8.0 | 0.00 | 0.00 | 0.00 | 82 | 1018.4 |
| 20260902073034 | 21 | 36 | 0.0 | 6.4 | 0.00 | 0.00 | 0.00 | 82 | 1018.5 |
| 20260902071536 | 21 | 40 | 3.2 | 6.4 | 0.00 | 0.00 | 0.00 | 82 | 1018.5 |
| 20260902070030 | 21 | 67 | 1.6 | 6.4 | 0.00 | 0.00 | 0.00 | 81 | 1018.4 |
| 20260902064529 | 21 | 123 | 0.0 | 3.2 | 0.00 | 0.00 | 0.00 | 81 | 1018.3 |
| 20260902063032 | 21 | 55 | 0.0 | 3.2 | 0.00 | 0.00 | 0.00 | 81 | 1018.2 |
| 20260902061541 | 21 | 86 | 0.0 | 3.2 | 0.00 | 0.00 | 0.00 | 81 | 1018.4 |
| 20260902060027 | 21 | 297 | 1.6 | 8.0 | 0.00 | 0.00 | 0.00 | 81 | 1018.5 |
| 20260902054532 | 21 | 22 | 1.6 | 8.0 | 0.00 | 0.00 | 0.00 | 81 | 1018.5 |
| 20260902053029 | 21 | 44 | 1.6 | 11.3 | 0.00 | 0.00 | 0.00 | 82 | 1018.3 |
| 20260902051525 | 21 | 75 | 0.0 | 3.2 | 0.00 | 0.00 | 0.00 | 82 | 1018.4 |
| 20260902050026 | 21 | 10 | 0.0 | 3.2 | 0.00 | 0.00 | 0.00 | 81 | 1018.3 |
| 20260902044524 | 21 | 315 | 0.0 | 8.0 | 0.00 | 0.00 | 0.00 | 81 | 1018.4 |
| 20260902043023 | 21 | 333 | 0.0 | 0.0 | 0.00 | 0.00 | 0.00 | 81 | 1018.6 |
| 20260902041521 | 21 | 118 | 0.0 | 3.2 | 0.00 | 0.00 | 0.00 | 80 | 1018.6 |
| 20260902040019 | 22 | 318 | 1.6 | 6.4 | 0.00 | 0.00 | 0.00 | 79 | 1018.5 |
| 20260902034519 | 22 | 69 | 3.2 | 8.0 | 0.00 | 0.00 | 0.00 | 79 | 1018.4 |
| 20260902033019 | 22 | 78 | 4.8 | 11.3 | 0.00 | 0.00 | 0.00 | 80 | 1018.5 |
| 20260902031517 | 21 | 109 | 1.6 | 8.0 | 0.00 | 0.00 | 0.00 | 79 | 1018.5 |
| 20260902030017 | 21 | 76 | 1.6 | 6.4 | 0.00 | 0.00 | 0.00 | 80 | 1018.7 |
| 20260902024521 | 21 | 89 | 0.0 | 6.4 | 0.00 | 0.00 | 0.00 | 79 | 1018.8 |
| 20260902023017 | 22 | 98 | 0.0 | 8.0 | 0.00 | 0.00 | 0.00 | 78 | 1018.5 |
| 20260902021516 | 22 | 67 | 0.0 | 3.2 | 0.00 | 0.00 | 0.00 | 77 | 1018.4 |
| 20260902020020 | 22 | 201 | 0.0 | 1.6 | 0.00 | 0.00 | 0.00 | 75 | 1018.3 |
| 20260902014517 | 22 | 201 | 0.0 | 6.4 | 0.00 | 0.00 | 0.00 | 73 | 1018.2 |
| 20260902013015 | 22 | 248 | 0.0 | 8.0 | 0.00 | 0.00 | 0.00 | 74 | 1018.1 |
| 20260902011514 | 22 | 285 | 0.0 | 3.2 | 0.00 | 0.00 | 0.00 | 75 | 1017.9 |
| 20260902010018 | 22 | 240 | 0.0 | 0.0 | 0.00 | 0.00 | 0.00 | 76 | 1017.7 |
| 20260902004513 | 22 | 242 | 0.0 | 3.2 | 0.00 | 0.00 | 0.00 | 75 | 1017.6 |
| 20260902003112 | 22 | 77 | 0.0 | 3.2 | 0.00 | 0.00 | 0.00 | 75 | 1017.6 |
| 20260902001511 | 23 | 294 | 1.6 | 3.2 | 0.00 | 0.00 | 0.00 | 73 | 1017.6 |
| 20260902000012 | 23 | 62 | 0.0 | 3.2 | 0.00 | 0.00 | 0.00 | 72 | 1017.7 |
| 20260901234509 | 23 | 29 | 0.0 | 6.4 | 0.00 | 0.00 | 0.00 | 71 | 1017.9 |
| 20260901233013 | 23 | 12 | 0.0 | 3.2 | 0.00 | 0.00 | 0.00 | 72 | 1017.9 |
| 20260901231507 | 24 | 60 | 0.0 | 1.6 | 0.00 | 0.00 | 0.00 | 71 | 1018.1 |
| 20260901230006 | 24 | 60 | 0.0 | 6.4 | 0.00 | 0.00 | 0.00 | 70 | 1018.3 |
| 20260901224505 | 25 | 51 | 3.2 | 8.0 | 0.00 | 0.00 | 0.00 | 70 | 1018.2 |
| 20260901223005 | 25 | 360 | 4.8 | 9.7 | 0.00 | 0.00 | 0.00 | 69 | 1018.2 |
| 20260901221504 | 25 | 48 | 1.6 | 8.0 | 0.00 | 0.00 | 0.00 | 69 | 1017.9 |
| 20260901220003 | 25 | 42 | 3.2 | 8.0 | 0.00 | 0.00 | 0.00 | 68 | 1018.1 |
| 20260901214502 | 25 | 32 | 3.2 | 9.7 | 0.00 | 0.00 | 0.00 | 66 | 1018.2 |
| 20260901213001 | 25 | 14 | 4.8 | 9.7 | 0.00 | 0.00 | 0.00 | 67 | 1018.1 |
| 20260901211502 | 25 | 71 | 1.6 | 6.4 | 0.00 | 0.00 | 0.00 | 66 | 1018.1 |
| 20260901210100 | 25 | 94 | 6.4 | 9.7 | 0.00 | 0.00 | 0.00 | 64 | 1018.4 |
| 20260901204559 | 26 | 31 | 8.0 | 12.9 | 0.00 | 0.00 | 0.00 | 62 | 1018.4 |
| 20260901203121 | 27 | 37 | 3.2 | 11.3 | 0.00 | 0.00 | 0.00 | 58 | 1018.4 |
| 20260901201559 | 27 | 320 | 1.6 | 12.9 | 0.00 | 0.00 | 0.00 | 58 | 1018.4 |
| 20260901200057 | 27 | 55 | 4.8 | 11.3 | 0.00 | 0.00 | 0.00 | 61 | 1018.4 |
| 20260901194558 | 26 | 257 | 0.0 | 11.3 | 0.00 | 0.00 | 0.00 | 60 | 1018.6 |
| 20260901193100 | 27 | 88 | 4.8 | 14.5 | 0.00 | 0.00 | 0.00 | 56 | 1018.8 |
| 20260901191553 | 27 | 49 | 6.4 | 14.5 | 0.00 | 0.00 | 0.00 | 55 | 1018.9 |
| 20260901190106 | 27 | 360 | 6.4 | 14.5 | 0.00 | 0.00 | 0.00 | 55 | 1019.0 |
| 20260901184552 | 27 | 286 | 3.2 | 14.5 | 0.00 | 0.00 | 0.00 | 59 | 1019.1 |
| 20260901183051 | 26 | 312 | 3.2 | 20.9 | 0.00 | 0.00 | 0.00 | 57 | 1019.1 |
| 20260901181548 | 26 | 360 | 3.2 | 16.1 | 0.00 | 0.00 | 0.00 | 58 | 1019.2 |
| 20260901180048 | 26 | 257 | 1.6 | 12.9 | 0.00 | 0.00 | 0.00 | 57 | 1019.2 |
| 20260901174547 | 26 | 84 | 4.8 | 17.7 | 0.00 | 0.00 | 0.00 | 58 | 1019.2 |
| 20260901173145 | 26 | 88 | 6.4 | 14.5 | 0.00 | 0.00 | 0.00 | 56 | 1019.2 |
| 20260901171602 | 26 | 19 | 4.8 | 14.5 | 0.00 | 0.00 | 0.00 | 57 | 1019.4 |
| 20260901170047 | 25 | 31 | 4.8 | 20.9 | 0.00 | 0.00 | 0.00 | 59 | 1019.6 |
| 20260901164544 | 25 | 355 | 9.7 | 17.7 | 0.00 | 0.00 | 0.00 | 59 | 1019.7 |